Showing default

FLOCK 4Q 28, 58280

Orbit data source: Space-Track

FLOCK 4Q 28, 58280 is a payload satellite owned by Planet (US) in SSO that was launched on Sat, 11 Nov 2023 UTC via an FALCON 9 launch vehicle from the Air Force Western Test Range (AFWTR). Payload-class satellites include a variety of spacecraft equipped with specific instruments for various scientific and technological missions. These include communications satellites like Starlink; space stations such as the ISS; scientific satellites like the Hubble; Earth observation satellites from companies like Planet Labs, Umbra, and HawkEye 360; GPS; miniature CubeSats for education and research; and military/defense satellites.

Not visible in the next 10 days
Identifier
58280, 2023-174AA
Orbit
SSO
Country
Flag of USUS
Related business
Manufacturer
Planet
Mission
Operational Commercial Imaging
Bus & Motor
CUBESAT 3U, Unknown motor
Mass
5.7 kg wet, 5.7 kg dry
Launch date (UTC)
2023-11-11 (2 years ago)
Launch vehicle
FALCON 9
Launch site
Air Force Western Test Range (AFWTR)
Object type
Payload
Rocket body
Debris
Shape & HBR
Box + 2 Pan, 1.0 m
Radar Cross Section
0.072 m², Medium (>0.1 m² and < 1m²)

Expand to show TLE details & history
Last TLE update: 11 hours ago

TLE from 11 hours ago
0 FLOCK 4Q 28
1 58280U 23174AA  26126.50722655  .00023094  00000-0  37762-3 0  9995
2 58280  97.3869 216.4189 0003762 288.2716  71.8127 15.52532768139272
Epoch: 2026-05-06T12:10Z
TLE epoch observation values (Epoch: 2026-05-06T12:10:24.373Z)
Latitude
-0.00007°
Longitude
169.45063°
Altitude
411.673 km
Speed
7.664 km/s
True Right ascension
14h 25m 40s
True Declination
0° 00' 00"
Sunlit
Object was in full shadow at epoch
Visualization orbit readout
Latitude
Unknown
Longitude
Unknown
Altitude
Unknown
Speed
Unknown
Apparent Right ascension
Unknown
Apparent Declination
Unknown
Sunlit
N/A
Visualization observer readout
Local Sidereal Time
07:27:37
Azimuth
Unknown
Elevation
Unknown
Doppler factor
Unknown
Orbital elements
Apogee altitude
408.808 km
Perigee altitude
403.704 km
Semi-major axis
6,784.393 km
Eccentricity
0.00038
Inclination
97.3869°
RAAN
216.4189°
Arg. of periapsis
288.2716°
True anomaly
71.85366°
Mean anomaly
71.8127°
Eccentric anomaly
71.83318°
Mean motion
3.88398 °/min
Orbital period
92.69 mins
BSTAR
0.00037762
Loading maneuver chart data...
Computing Atmospheric mass density...
Loading historical data...
Loading historical data...
Loading historical data...
Loading historical data...
Loading historical data...
Loading historical data...
Loading historical data...

Documentation

Showing up to 5 results
|